Regional Weather Roundup
Issued by NWS

Home | Current Version | Previous Version | Text Only | Print | Product List | Glossary On
Versions: 1 2 3 4 5 6 7 8 9 10 11 12 13 14 15 16 17 18 19 20 21 22 23 24 25 26 27 28 29 30 31 32 33 34 35 36 37 38 39 40 41 42 43 44 45 46 47 48 49 50
000
ASUS43 KMKX 231300
RWRWI

WISCONSIN REGIONAL WEATHER ROUNDUP
NATIONAL WEATHER SERVICE MILWAUKEE/SULLIVAN WI
800 AM CDT TUE SEP 23 2014

NOTE: "FAIR" INDICATES FEW OR NO CLOUDS BELOW 12,000 FEET WITH NO
SIGNIFICANT WEATHER AND/OR OBSTRUCTIONS TO VISIBILITY.

WIZ001-002-006>008-014>016-023>028-231400-
NORTHWEST WISCONSIN

CITY           SKY/WX    TMP DP  RH WIND       PRES   REMARKS
SUPERIOR ARPT  CLEAR     44  44 100 CALM      30.20R
ASHLAND        SUNNY     50  48  93 S5        30.22R
HAYWARD        SUNNY     44  42  93 CALM      30.24R
SIREN          CLEAR     49  48  97 CALM      30.22R
CUMBERLAND     SUNNY     43  41  93 CALM      30.24R FOG
RICE LAKE      SUNNY     45  44  97 CALM      30.25S FOG
CHETEK         MOSUNNY   45  45 100 E5        30.24S FOG
LADYSMITH      SUNNY     46  45  97 E3        30.27S
EAU CLAIRE     SUNNY     44  43  96 CALM      30.24R FOG
MENOMONIE      FOG       45  45  99 CALM      30.25R VSB<1/4
NEW RICHMOND   CLEAR     47  47  99 CALM      30.23R
OSCEOLA        CLEAR     46  46 100 CALM      30.25R
$$

WIZ003>005-009-010-017-018-231400-
NORTH CENTRAL WISCONSIN

CITY           SKY/WX    TMP DP  RH WIND       PRES   REMARKS
MANITOWISH WTR MOSUNNY   40  40 100 CALM      30.25R
ARBOR VITAE    SUNNY     44  42  94 CALM      30.26R
WOODRUFF       SUNNY     44  42  94 CALM      30.26R
RHINELANDER    SUNNY     49  49 100 W3        30.27S
EAGLE RIVER    FOG       40  40 100 CALM      30.25S VSB 1/2
LAND O LAKES   FOG       40  40 100 CALM      30.26R VSB 1/4
PHILLIPS         N/A     43  43 100 CALM      30.25R FOG
TOMAHAWK       SUNNY     39  38  97 CALM      30.27R FOG
MEDFORD        SUNNY     43  43 100 CALM      30.26S
MERRILL        SUNNY     39  39 100 CALM      30.27S
$$

WIZ029-030-035-036-043>047-231400-
CENTRAL WISCONSIN

CITY           SKY/WX    TMP DP  RH WIND       PRES   REMARKS
WAUSAU         SUNNY     47  47 100 CALM      30.26S
MOSINEE        SUNNY     45  45 100 CALM      30.28S
MARSHFIELD     SUNNY     49  48  97 CALM      30.27R FOG
STEVENS POINT  FOG       40  40 100 CALM      30.28S VSB 1/4
WAUPACA        SUNNY     46  45  96 CALM      30.28R
WAUTOMA        NOT AVBL
WISC RAPIDS    SUNNY     47  46  97 CALM      30.29R
CAMP DOUGLAS   NOT AVBL
$$

WIZ011>013-019>022-031-037>040-048>050-231400-
NORTHEAST WISCONSIN

CITY           SKY/WX    TMP DP  RH WIND       PRES   REMARKS
ANTIGO         MOSUNNY   43  43 100 CALM      30.27S FOG
SHAWANO        SUNNY     49  47  95 CALM      30.27R
OCONTO         SUNNY     48  48 100 CALM      30.25S
STURGEON BAY   SUNNY     55  50  82 SW7       30.26R
GREEN BAY      SUNNY     52  51  97 SW5       30.28R
MANITOWOC      NOT AVBL
APPLETON       SUNNY     52  48  87 VRB3      30.29R
CLINTONVILLE   SUNNY     45  45 100 CALM      30.27R
OSHKOSH        SUNNY     51  49  92 CALM      30.28R
$$

WIZ032>034-041-042-053>061-231400-
SOUTHWEST WISCONSIN

CITY           SKY/WX    TMP DP  RH WIND       PRES   REMARKS
LA CROSSE      FOG       50  49  96 SE6       30.27S VSB 1/4
SPARTA         CLOUDY    40  40 100 CALM      30.29R
VIROQUA        SUNNY     51  48  89 CALM      30.28R
BOSCOBEL       FOG       48  46  93 CALM      30.31R VSB<1/4
PRAIRIE DU CHI FOG       46  45  95 CALM      30.29R VSB 3/4
PLATTEVILLE    SUNNY     49  46  90 SE5       30.31R
$$

WIZ056-057-062-063-064-067-068-231400-
SOUTH CENTRAL WISCONSIN

CITY           SKY/WX    TMP DP  RH WIND       PRES   REMARKS
REEDSBURG      SUNNY     43  42  96 CALM      30.28S
BARABOO/DELLS  SUNNY     50  47  88 CALM      30.28S
LONE ROCK      NOT AVBL
MINERAL POINT  SUNNY     50  46  87 S3        30.30R
MADISON        SUNNY     50  46  86 CALM      30.30R
MIDDLETON      SUNNY     44  44  99 CALM      30.30R
WATERTOWN      SUNNY     45  45 100 CALM      30.30R
MONROE         SUNNY     50  46  87 SW6       30.30R
JANESVILLE     SUNNY     50  46  87 CALM      30.30S
$$

WIZ051-052-058>065-066-070>072-231400-
SOUTHEAST WISCONSIN

CITY           SKY/WX    TMP DP  RH WIND       PRES   REMARKS
MILWAUKEE      SUNNY     56  46  69 W3        30.30S
WAUKESHA       SUNNY     48  46  93 MISG      30.32R
MILWAUKEE/TIMM SUNNY     50  46  87 CALM      30.31R
RACINE         SUNNY     54  45  71 W7        30.32R
BURLINGTON     SUNNY     42  42 100 CALM      30.31S
KENOSHA        SUNNY     51  48  89 W6        30.31R
FOND DU LAC    SUNNY     51  49  92 S3        30.29R
SHEBOYGAN      SUNNY     50  48  93 CALM      30.29R
WEST BEND      SUNNY     45  43  93 CALM      30.29S
JUNEAU         SUNNY     46  45  97 CALM      30.30S
$$

LSZ147-162-231400-
LAKE SUPERIOR

STATION/POSITION TIME  TEMP    WIND        PRES    WAVE
                       AIR SEA DIR/SP/G            HT/PER
                 (UTC) (F)     (DEG/KT/KT) (MB)    (FT/S)
W MID LAKE BUOY  1150   51 48  230/  8/  8 1021.9R   1/ 4
DEVILS ISLAND    1200   58     230/ 12/ 13 1022.4R
PORT WING        1200   50     150/  2/  4 1022.7R
SAXON HARBOR     1200   53     180/  6/  9 1023.0R
$$

LMZ867-665-643>646-231400-
LAKE MICHIGAN

STATION/POSITION TIME  TEMP    WIND        PRES    WAVE
                       AIR SEA DIR/SP/G            HT/PER
                 (UTC) (F)     (DEG/KT/KT) (MB)    (FT/S)
CHAMBERS ISLAND  1200   55     170/  3/  6 1023.7R
S GREEN BAY BUOY 1200   58                 1025.1R
N MID LAKE BUOY  1150   57 57  250/ 12/ 14 1023.1R   2/ 4
NORTHPORT PIER   1201   57     260/  6/ 13 1023.0R
SISTER BAY       1112          280/  8/ 10   N/A
ALGOMA LAKESHORE 1224          310/  5/  8   N/A
KEWAUNEE LAKESHO 1200   51     300/  6/  8 1023.3R
SHEBOYGAN LAKESH 1200   52 54  260/  7/  8 1025.6R
PORT WASHINGTON  1210   54     280/  7/ 10 1025.7R
ATWATER BUOY     1200   56     250/ 10/ 12 1026.3R
S MID LAKE BUOY  1150   60 62  230/ 10/ 12 1026.2R   2/ 4
KENOSHA   LAKESH 1200   53     250/  8/ 10 1025.7R
$$

TC  - TEMPERATURE IN CELSIUS
VSB - VISIBILITY IN STATUTE MILES
WCI - WIND CHILL INDEX
HX  - HEAT INDEX



USA.gov is the U.S. government's official web portal to all federal, state and local government web resources and services.